Tracking 20623 objects as of 4-Apr-2020
HD Live streaming from Space Station
objects crossing your sky now

COSMOS 970 DEB

Track COSMOS 970 DEB now!
10-day predictions


NORAD ID: 12942
Int'l Code: 1977-121AZ
Perigee: 1,050.1 km
Apogee: 1,206.7 km
Inclination: 65.8 °
Period: 107.7 minutes
Semi major axis: 7499 km
RCS: 0.0606 m2 (small)
Launch date: December 21, 1977
Source: Commonwealth of Independent States (former USSR) (CIS)
Launch site: TYURATAM MISSILE AND SPACE COMPLEX (TTMTR)

Note: This is SATELLITE DEBRIS
aabbcc
Your satellite tracking list
Your tracking list is empty




NASA's NSSDC Master Catalog

Two Line Element Set (TLE):
1 12942U 77121AZ  20094.73381010 +.00000035 +00000-0 +20157-3 0  9990
2 12942 065.8331 005.4596 0104418 173.5190 214.9005 13.36785599890711
Source of the keplerian elements: AFSPC